Regional Weather Roundup
Issued by NWS New Orleans/Baton Rouge, LA

Home | Current Version | Previous Version | Text Only | Print | Product List | Glossary Off
Versions: 1 2 3 4 5 6 7 8 9 10 11 12 13 14 15 16 17 18 19 20 21 22 23 24 25 26 27 28 29 30 31 32 33 34 35 36 37 38 39 40 41 42 43 44 45 46 47 48 49 50

672
ASUS44 KLIX 300001
RWRLIX
NEW ORLEANS REGIONAL WEATHER ROUNDUP
NATIONAL WEATHER SERVICE NEW ORLEANS LA
600 PM CST THU JAN 29 2015

NOTE: "FAIR" INDICATES FEW OR NO CLOUDS BELOW 12,000 FEET WITH NO
      SIGNIFICANT WEATHER AND/OR OBSTRUCTIONS TO VISIBILITY.
      SKY/WX - SKY CONDITION AND SIGNIFICANT WEATHER.
      TMP - AIR TEMPERATURE.     DP    - DEWPOINT TEMPERATURE.
      RH  - RELATIVE HUMIDITY.   PRES  - PRESSURE.
      HI  - HEAT INDEX.          WCI   - WIND CHILL INDEX.

*  THESE STATIONS ARE NOT NWS OR FAA STATIONS AND ARE NOT UNDER
   NWS QUALITY CONTROL.

LAZ038-040-048-061>063-065>067-069-300100-
SOUTHEAST LOUISIANA

CITY           SKY/WX    TMP DP  RH WIND       PRES   REMARKS
N.O. AUDUBON   NOT AVBL
N.O. INTL ARPT MOCLDY    69  54  58 SW9       30.17S
6HR MIN TEMP:  69; 6HR MAX TEMP:  77;

N.O. LAKEFRONT CLEAR     69  55  60 SW3       30.18S
6HR MIN TEMP:  67; 6HR MAX TEMP:  74;

N.O. DOWNTOWN* NOT AVBL
SLIDELL        CLEAR     65  56  72 S5        30.17R
6HR MIN TEMP:  64; 6HR MAX TEMP:  75;

BATON ROUGE    PTCLDY    67  49  52 W7        30.18R
6HR MIN TEMP:  66; 6HR MAX TEMP:  78;

BOOTHVILLE     CLEAR     63  58  83 S5        30.21S
6HR MIN TEMP:  63; 6HR MAX TEMP:  71;

BELLE CHASSE   MOCLDY    63  55  75 SW7       30.18S
6HR MIN TEMP:  63; 6HR MAX TEMP:  76;

BOGALUSA*        N/A     68  55  62 CALM      30.18R
6HR MIN TEMP:  68; 6HR MAX TEMP:  79;

GALLIANO*      NOT AVBL
NEW ROADS*     NOT AVBL
GONZALES*      NOT AVBL
HAMMOND*       NOT AVBL
HOUMA*         NOT AVBL
PORT FOURCHON* CLEAR     66  61  82 SW6       30.24S

$$

MSZ070-080>082-300100-
SOUTHERN MISSISSIPPI

CITY           SKY/WX    TMP DP  RH WIND       PRES   REMARKS
MCCOMB         PTCLDY    69  48  47 W6        30.17R
6HR MIN TEMP:  69; 6HR MAX TEMP:  76;

GULFPORT       CLEAR     62  54  74 S7        30.18S
6HR MIN TEMP:  62; 6HR MAX TEMP:  68;

BILOXI         CLEAR     61  56  81 SW13      30.18S
6HR MIN TEMP:  61; 6HR MAX TEMP:  69;

PASCAGOULA     CLEAR     62  54  74 S6        30.19S
6HR MIN TEMP:  62; 6HR MAX TEMP:  70;

STENNIS ARPT*  CLEAR     61  52  72 S3        30.18R

$$

COASTAL OBSERVATIONS
LAKE AND NEARSHORE STATIONS

STATION/POSITION TIME  TEMP    WIND        PRES    WAVE
                       AIR SEA DIR/SP/G            HT/PER
                 (UTC) (F)     (DEG/KT/KT) (MB)    (FT/S)
PASCAGOULA       2323   63     190/  9/ 10 1021.8
WAVELAND YACHT   2323   63     190/  7/ 10 1021.2
GRAND ISLE       2323   67 63  200/  6/ 10 1023.3
SOUTHWEST PASS   2323   65 47  190/  9/  9 1023.6
NEW CANAL        2323   74 56  230/  6/ 10 1022.0
SHELL BEACH      2323   68 58  190/ 12/ 15 1021.9

OFFSHORE STATIONS

STATION/POSITION TIME  TEMP    WIND        PRES    WAVE
                       AIR SEA DIR/SP/G            HT/PER
                 (UTC) (F)     (DEG/KT/KT) (MB)    (FT/S)
64 S DAUPHIN ISL 2247   68 69  210/  8/ 10 1023.6    2/ 5

$$




USA.gov is the U.S. government's official web portal to all federal, state and local government web resources and services.